User: anonymous   Login
Location: Berg
(47.2344°N, 9.5296°E)
Time: 11:06:49
(UTC+00:00)
Language:

CUBESAT XI-V - Orbit

View from above orbital plane
View from above orbital plane
View from above satellite
View from above satellite

Ground track
Ground track

The orbit data is extracted from the following two-line orbital elements,

1 28895U 05043F   21334.58163728  .00000299  00000-0  65978-4 0  9996
2 28895  98.0814 104.4271 0017594  50.5611 309.7145 14.64015078858317
Epoch (UTC): 30 November 2021 13:57:33
Eccentricity: 0.0017594
inclination: 98.0814°
perigee height: 668 km
apogee height: 692 km
right ascension of ascending node: 104.4271°
argument of perigee: 50.5611°
revolutions per day: 14.64015078
mean anomaly at epoch: 309.7145°
orbit number at epoch: 85831

The dashed part of the orbit path shows where the satellite is in the earth's shadow,  

DLR